Domov               UVHVVR             MKGP            O straneh              
ZDRAVSTVENO VARSTVO RASTLIN
  MREŽA AGROMET. POSTAJ
 ► PROGNOSTIČNA OBVESTILA
AGROMETEOROLOŠKI PODATKI -
ARSO
OBVLADOVANJE TVEGANJ ZARADI
NEUGODNIH VREMENSKIH RAZMER
  ► NARAVNE NESREČE
  ► SUŠA/MOČA
  ► NAMAKANJE
  ► ŽLED (gozdarstvo)
KARTOGRAFSKI PRIKAZI
SPLETNE POVEZAVE
PROJEKTI IN PUBLIKACIJE

AGROMETEOROLOŠKA MREŽA: VREMENSKE POSTAJE IN FENOLOŠKA OPAZOVANJA

Pregled podatkov za lokacijo Črnomelj, meteorološka postaja 859096

Pregled senzorjev na lokaciji

ID Ime Zadnja
vrednost
Datum
zadnje
spremembe
Tip
senzorja
4080 Temperatura 2 m (°C) 16,17 °C 12.12.2017 01:15 50YA
4081 Relativna vlaga 2 m (% RH) 45,19 % RH 12.12.2017 01:15 50YA
4082 Omočenost lista (U) 0 U 12.12.2017 01:15 A730WET
4083 Padavine (mm) 0 mm 12.12.2017 01:15 Rain-O-Matic

Pregled podatkov zadnjih 24 ur

Zap.
št.
Datum in čas Črnomelj
Omočenost
lista
Padavine Relativna
vlaga
2
m
Temperatura
2
m
0 12.12.2017 01:00 0 0 45,05 16,28
1 12.12.2017 00:30 0 0 46,24 16,02
2 12.12.2017 00:00 0 0 47,35 15,77
3 11.12.2017 23:30 0 0 49,04 15,45
4 11.12.2017 23:00 0 0 49,37 15,44
5 11.12.2017 22:30 0 0 49,97 15,13
6 11.12.2017 22:00 0 0 50,55 15
7 11.12.2017 21:30 0 0 50,79 14,91
8 11.12.2017 21:00 0 0 51,47 14,77
9 11.12.2017 20:30 0 0 53,48 14,54
10 11.12.2017 20:00 0 0 55,28 14,34
11 11.12.2017 19:30 0 0 55,93 14,31
12 11.12.2017 19:00 0 0 55,92 14,32
13 11.12.2017 18:30 0 0 55,5 14,45
14 11.12.2017 18:00 0 0 57,74 14,07
15 11.12.2017 17:30 0 0 58,44 14,09
16 11.12.2017 17:00 0 0 59,03 14,02
17 11.12.2017 16:30 0 0 59,34 14,13
18 11.12.2017 16:00 0 0 61,7 13,97
19 11.12.2017 15:30 0 0 61,38 13,97
20 11.12.2017 15:00 0 0 62,57 13,8
21 11.12.2017 14:30 5 0 64,63 13,57
22 11.12.2017 14:00 9 0 67,21 13,23
23 11.12.2017 13:30 8 0 68,8 13,02
24 11.12.2017 13:00 3 0 65,4 13,46
25 11.12.2017 12:30 1 0 64,2 13,52
26 11.12.2017 12:00 0 0 64,19 13,3
27 11.12.2017 11:30 1,5 0 66,78 12,45
28 11.12.2017 11:00 0 0 66,63 12,44
29 11.12.2017 10:30 0 0 65,67 12,32
30 11.12.2017 10:00 3 0 66,59 11,79
31 11.12.2017 09:30 5 0 71,35 11,05
32 11.12.2017 09:00 1 0 68,45 11,35
33 11.12.2017 08:30 0 0 66,38 11,44
34 11.12.2017 08:00 2 0 66,25 10,99
35 11.12.2017 07:30 3 1 64,46 11,19
36 11.12.2017 07:00 4 1,2 63,96 11,11
37 11.12.2017 06:30 4 1,8 65,79 10,86
38 11.12.2017 06:00 6 1,2 73,05 8,94
39 11.12.2017 05:30 6 0,4 88,73 5,56
40 11.12.2017 05:00 5 1 79,87 7,26
41 11.12.2017 04:30 6 1,6 86,45 6,34
42 11.12.2017 04:00 5 1,2 96,17 3,54
43 11.12.2017 03:30 6 0,8 98,81 2,21
44 11.12.2017 03:00 5 1,2 97,56 3,27
45 11.12.2017 02:30 5 0,8 97,97 2,73
46 11.12.2017 02:00 4,5 1,6 95,18 2,61
47 11.12.2017 01:30 4 1,2 95,92 2,29
© 2011 Ministrstvo za kmetijstvo, gozdarstvo in prehrano. Vse pravice pridržane.